Location: Dal�� Lhota
(48.7500°N, 14.0167°E)
Time: 01:39:11
(UTC+00:00)

S-56A Canister/Altair - Pass Details

Date: 08 August 2021
Orbit: 632 x 2500 km, 38.9° (Epoch: 19 September)

Event Time Altitude Azimuth Distance (km) Brightness Sun altitude
Rises 19:36:46 0° 277° (W) 6,162 13.2 -10.0°
Reaches altitude 10° 19:46:01 10° 247° (WSW) 5,116 12.1 -11.2°
Maximum altitude 19:48:49 11° 236° (SW) 4,990 11.8 -11.5°
Drops below altitude 10° 19:51:34 10° 225° (SW) 4,973 11.7 -11.9°
Sets 20:00:01 0° 193° (SSW) 5,588 11.6 -12.9°
